Location: Dallas
(32.7833°N, 96.8000°W)
Time: 21:58:11
(UTC-06:00)

Envisat - Pass Details

Date: 14 December 2021
Orbit: 764 x 766 km, 98.2° (Epoch: 23 January)

Event Time Altitude Azimuth Distance (km) Brightness Sun altitude
Rises 17:53:58 0° 209° (SSW) 3,217 7.2 -6.8°
Reaches altitude 10° 17:57:16 10° 232° (SW) 2,296 7.0 -7.5°
Maximum altitude 18:00:07 15° 267° (W) 1,971 6.4 -8.0°
Drops below altitude 10° 18:02:58 10° 301° (WNW) 2,304 6.0 -8.6°
Sets 18:06:19 0° 325° (NW) 3,235 6.4 -9.2°
